Starlink 31182

operational
NORAD ID: 59159 Int'l Des: 2024-044 Owner: SPXS Country: US Constellation: starlink
LEOCIRCULAR

Über Starlink 31182

Beschreibung wird geladen...

Live-Position

3D-Globus wird geladen...

Nächste Überflüge

Höhenverlauf

Altitude vs Time

uPlot chart will show altitude changes over time

Zweizeiliger Elementsatz

1 59159U 24044H 25258.02202759 .00001339 00000-0 58145-4 0 9995
2 59159 43.0054 18.7568 0000928 268.2856 91.7890 15.27588668 86732
Epoch: 15. Sept. 2025 • Age: 12 hours

Aktueller Status

Höhe 490.5 km
Geschwindigkeit 7.62 km/s
Subsatellitenpunkt -29.92°S, 150.08°E
Startdatum 4. März 2024
Alter 1.5 years
Typ internet

Technische Details

Klassifizierung Payload
Masse 730.00 kg
Trockenmasse 700.00 kg
Gesamtmasse 730.00 kg
Länge 0.30 m
Durchmesser 4.10 m
Spannweite 29.00 m
Form Box + pan
Hersteller SPXS
Bus-Typ Starlink V2M
Phasenstatus In Orbit
Besitzer/Staat SPXS/US

Große Konstellationen

Loading constellations...